Content
SEND FEEDBACK

Daily
Averages
Monthly
Summary
United States of America

APPLEGATE, OREGON


Home > North America > United States > Oregon
Elevation: 1427 feet     Latitude: 42 15N     Longitude: 123 10W

WEATHER
 
SELECT A DAY
Number of Records: 202,126;   Date Range: 1/1/95 - 11/26/14
 
SHARE

PRINT THIS DATA

[ ← Previous Day ]
WEATHER ALMANAC - JANUARY 31, 2013
[ Next Day → ]
[ °C ]   °F
Weather ElementAverageHighLow
Temperature40.2 °F41 °F (1:53 am)39 °F (7:53 am)
Dewpoint35.6 °F37 °F (1:53 am)35.1 °F (8:53 am)
Humidity83.6 %89 % (7:53 am)79 % (12:53 pm)
Barometer30.41 in30.47 in (1:53 am)30.36 in (3:53 pm)
Wind Speed1.3 mph4.6 mph (3:53 am)
Weather ElementAverage
Visibility9.8 mi
Wind DirectionNE (50 °)

Weather ElementTotal
Precipitation---
Heating Degree Days25 (Base 65)
Averaged from 28 records on January 31, 2013
WEATHER CONDITIONS BREAKOUT
WIND DIRECTION BREAKOUT
WEATHER BY HOUR - JANUARY 31, 2013
[ °C ]   °F
Local TimeTemperatureDewpointHumidityBarometerVisibilityWind DirectionWind SpeedGust SpeedPrecipitationEventsConditions
1:53 AM41.0 °F37.0 °F86 %30.47 in10.0 miCalmOvercast
2:53 AM41.0 °F36.0 °F82 %30.46 in10.0 miSouth (180°)3.5 mphOvercast
3:53 AM39.9 °F36.0 °F86 %30.45 in10.0 miSSE (150°)4.6 mphOvercast
4:53 AM39.9 °F36.0 °F86 %30.43 in10.0 miCalmOvercast
5:53 AM39.9 °F36.0 °F86 %30.42 in10.0 miCalmOvercast
6:53 AM39.9 °F36.0 °F86 %30.43 in10.0 miCalmOvercast
7:53 AM39.0 °F36.0 °F89 %30.43 in9.0 miESE (110°)3.5 mphOvercast
8:05 AM39.2 °F35.6 °F87 %30.40 in10.0 miCalmOvercast
8:53 AM39.9 °F35.1 °F83 %30.44 in10.0 miCalmOvercast
9:00 AM39.2 °F35.6 °F87 %30.42 in10.0 miCalmOvercast
9:07 AM39.2 °F35.6 °F87 %30.42 in10.0 miCalmOvercast
9:53 AM39.9 °F35.1 °F83 %30.44 in10.0 miCalmOvercast
10:53 AM39.9 °F36.0 °F86 %30.44 in10.0 miNNE (30°)3.5 mphOvercast
11:53 AM39.9 °F36.0 °F86 %30.43 in10.0 miNE (40°)4.6 mphOvercast
12:53 PM41.0 °F35.1 °F79 %30.40 in10.0 miCalmOvercast
1:00 PM41.0 °F35.6 °F81 %30.38 in10.0 miCalmOvercast
1:53 PM41.0 °F36.0 °F82 %30.39 in9.0 miNE (40°)3.5 mphOvercast
2:53 PM41.0 °F35.1 °F79 %30.38 in10.0 miCalmOvercast
3:53 PM41.0 °F35.6 °F81 %30.36 in10.0 miNW (320°)4.6 mphOvercast
4:53 PM41.0 °F35.1 °F79 %30.38 in9.0 miWNW (290°)3.5 mphOvercast
5:53 PM41.0 °F35.1 °F79 %30.38 in9.0 miCalmOvercast
6:53 PM41.0 °F35.1 °F79 %30.38 in9.0 miCalmOvercast
7:53 PM39.9 °F35.1 °F83 %30.38 in9.0 miCalmOvercast
8:53 PM41.0 °F35.1 °F79 %30.38 in9.0 miCalmOvercast
9:53 PM39.2 °F35.6 °F87 %30.36 in10.0 miCalmOvercast
10:53 PM39.9 °F35.1 °F83 %30.38 in10.0 miCalmOvercast
11:33 PM39.2 °F35.6 °F87 %30.36 in10.0 miCalmOvercast
11:53 PM39.9 °F35.1 °F83 %30.39 in10.0 miWSW (240°)4.6 mphOvercast
Hourly data recorded from KMFR, located miles away from Applegate, Oregon







STORIES FROM OUR PARTNERS